User: anonymous   Login
Location: Solon
(41.3849°N, 81.4081°W)
Time: 00:51:56
(UTC-04:00)
Language:

CZ-2C R/B - Orbit

View from above orbital plane
View from above orbital plane
View from above satellite
View from above satellite

Ground track
Ground track

The orbit data is extracted from the following two-line orbital elements,

1 28480U 04046B   14302.94899624  .00000328  00000-0  14039-3 0  4759
2 28480 098.1078 088.6911 0142794 182.9131 288.4150 14.25366015517286
Epoch (UTC): 29 October 2014 22:46:33
Eccentricity: 0.0142794
inclination: 98.1078°
perigee height: 704 km
apogee height: 910 km
right ascension of ascending node: 88.6911°
argument of perigee: 182.9131°
revolutions per day: 14.25366015
mean anomaly at epoch: 288.4150°
orbit number at epoch: 51728

The dashed part of the orbit path shows where the satellite is in the earth's shadow,  

DLR